Weather past 2 weeks in Malakal, South Sudan

Now
N/A

Sunny.


Feels Like: N/A
Forecast: 77 / 95 °F
Wind: 12 mph from South

Location: Khartoum Airport

Current Time: Jun 2, 2015 at 11:06:30 AM

Latest Report: Jun 2, 2015 at 10:30 AM


Visibility: 10 mi

Pressure: 29.86 "Hg

Humidity: N/A

Dew point: N/A

Location of MalakalLocation

Historic Weather in Malakal — Graph

°F

Malakal temperature yesterday

Maximum temperature yesterday: 100 °F (at 4:00 PM)
Minimum temperature yesterday: 84 °F (at 6:00 AM)
Average temperature yesterday: 92 °F

Past Weeks' High & Low Weather Summary

 TemperatureHumidityPressure
High113 °F (May 18, 5:00 PM)52% (Jun 2, 9:00 AM)29.95 "Hg (Jun 2, 9:00 AM)
Low84 °F (May 23, 6:00 AM)5% (May 18, 1:00 PM)29.68 "Hg (May 18, 4:00 PM)
Average97 °F20%29.79 "Hg
* Reported May 18 10:00 AM — Jun 2 10:00 AM, Malakal, Weather by CustomWeather, © 2015

Note: Actual official high and low records may vary slightly from our data, if they occured in-between our weather recording intervals... More about our weather records

Advertising

Malakal weather history for previous 24 hours

 ConditionsComfort  
Time TempWeatherWind HumidityBarometerVisibility
10:00 AM
Tue, Jun 2
91 °FSunny.10 mph41%29.86 "Hg10 mi
9:30 AMN/ASunny.13 mphN/A29.86 "Hg10 mi
9:00 AM86 °FSunny.14 mph52%29.86 "Hg10 mi
8:30 AMN/ASunny.14 mphN/A29.86 "Hg10 mi
8:00 AM86 °FSunny.10 mph46%29.86 "Hg10 mi
7:30 AMN/ASunny.10 mphN/A29.86 "Hg10 mi
6:30 AMN/ASunny.9 mphN/A29.83 "Hg10 mi
6:00 AM86 °FClear.12 mph43%29.83 "Hg10 mi
5:30 AMN/AClear.6 mphN/A29.80 "Hg10 mi
5:00 AM88 °FClear.5 mph38%29.77 "Hg10 mi
4:30 AMN/AClear.3 mphN/A29.77 "Hg10 mi
4:00 AM90 °FClear.9 mph36%29.77 "Hg10 mi
3:30 AMN/AClear.13 mphN/A29.77 "Hg10 mi
3:00 AM90 °FClear.9 mph36%29.77 "Hg10 mi
2:30 AMN/AClear.9 mphN/A29.77 "Hg10 mi
2:00 AM90 °FClear.7 mph36%29.80 "Hg10 mi
1:30 AMN/AClear.7 mphN/A29.80 "Hg10 mi
1:00 AM90 °FClear.7 mph29%29.80 "Hg10 mi
12:00 AM90 °FClear.8 mph29%29.80 "Hg10 mi
11:30 PM
Mon, Jun 1
N/AClear.8 mphN/A29.80 "Hg10 mi
11:00 PM91 °FClear.8 mph26%29.80 "Hg10 mi
10:00 PM93 °FClear.7 mph26%29.80 "Hg10 mi
9:30 PMN/AClear.7 mphN/A29.77 "Hg10 mi
9:00 PM97 °FClear.5 mph16%29.77 "Hg10 mi
8:00 PM99 °FClear.5 mph14%29.74 "Hg10 mi
7:30 PMN/AClear.7 mphN/A29.74 "Hg10 mi
7:00 PM99 °FSunny.7 mph17%29.74 "Hg10 mi
6:00 PM99 °FSunny.7 mph16%29.74 "Hg10 mi
5:30 PMN/ASunny.8 mphN/A29.74 "Hg10 mi
5:00 PM100 °FSunny.10 mph15%29.74 "Hg10 mi
4:00 PM100 °FExtremely hot.6 mph15%29.74 "HgN/A
3:30 PMN/APassing clouds.14 mphN/A29.74 "HgN/A
3:00 PM99 °FSunny.13 mph21%29.77 "Hg10 mi
2:30 PMN/ASunny.16 mphN/A29.77 "Hg10 mi
2:00 PM95 °FSunny.15 mph44%29.80 "Hg10 mi
1:30 PMN/ASunny.18 mphN/A29.80 "Hg10 mi
12:30 PMN/ASunny.12 mphN/A29.83 "Hg10 mi
12:00 PM93 °FSunny.16 mph30%29.83 "Hg10 mi
11:30 AMN/ASunny.18 mphN/A29.83 "Hg10 mi
Weather by CustomWeather, © 2015

See weather overviewHow to use our weather pages